[[{"header":{"parameterUnit":"m.s-1","parameterCategory":1,"la1":30.2991,"la2":30.254,"lo1":-89.0895,"lo2":-89.0444,"dy":0.0017,"dx":0.0017,"nx":28,"ny":28,"refTime":"2023-08-25T21:00:00:Z","depth":0,"parameterNumber":2,"parameterNumberName":"U-component_of_WINDS"},"data":[0,0,0,0,0,0,0,0,0,0,0,0,0,0,0,0,0,0,0,0,0,0,0,0,0,0,0,0,0,0,0,0,0,0,0,0,0,0,0,0,0,0,0,0,0,0,0,0,0,0,0,0,0,0,0,0,0,0,0.5925,0.5926,0,0.604,0.6041,0.6042,0.599,0.5987,0.5984,0.5982,0.6106,0.6111,0.6117,0,0,0,0,0,0,0,0,0,0,0,0,0,0.5667,0.5672,0.5925,0.5926,0.5928,0.604,0.6041,0.6043,0.5991,0.5987,0.5984,0.598,0.6104,0.6111,0.6118,0,0,0,0,0,0,0,0,0,0,0,0,0,0.578,0.5673,0.5925,0.5915,0.5915,0.6039,0.6041,0.6043,0.5991,0.5987,0.5983,0.5979,0.6101,0.611,0.6119,0.6261,0,0,0.6146,0.615,0,0,0,0,0,0,0,0,0.5774,0.579,0.5915,0.5916,0.5916,0.5996,0.5996,0.6117,0.5992,0.5963,0.5982,0.5977,0.6073,0.6084,0.6115,0.6267,0.6272,0.6147,0.6153,0.6157,0.6159,0,0,0,0,0,0,0,0.5766,0.5784,0.597,0.5917,0.5918,0.5907,0.5918,0.6018,0.6041,0.5965,0.5961,0.5975,0.6073,0.6107,0.6118,0.6274,0.6147,0.6155,0.6161,0.6164,0.655,0.6555,0,0,0,0,0,0,0.5757,0.5778,0.5967,0.5974,0.5833,0.5915,0.5928,0.5975,0.604,0.6045,0.5979,0.5972,0.6094,0.6108,0.6122,0.6294,0.6156,0.6165,0.617,0.6545,0.6551,0.6556,0,0,0,0,0,0,0.5752,0.5775,0.5962,0.5875,0.5898,0.5924,0.5978,0.598,0.6014,0.605,0.6055,0.6009,0.6091,0.6109,0.6227,0.6298,0.6169,0.6177,0.6539,0.6547,0.6554,0.6639,0,0,0,0,0,0,0.5745,0.5773,0.5826,0.5877,0.5903,0.6064,0.5982,0.5985,0.6028,0.6021,0.608,0.6086,0.6089,0.6214,0.6236,0.6308,0.6184,0.6533,0.6543,0.6551,0.663,0.6648,0.6664,0,0,0,0,0,0.5736,0.5846,0.5829,0.5852,0.5969,0.6068,0.6083,0.6083,0.6034,0.6089,0.6112,0.6084,0.6286,0.6226,0.6251,0.6327,0.6529,0.654,0.6551,0.6623,0.6645,0.6664,0,0,0,0,0,0,0.5805,0.5853,0.5834,0.5964,0.6012,0.6058,0.6127,0.6106,0.6171,0.6161,0.616,0.6174,0.6296,0.6323,0.6255,0.6468,0.64,0.6417,0.6447,0.6468,0.6485,0.6477,0.6192,0,0,0,0,0,0.5835,0.5909,0.5947,0.6058,0.6083,0.6101,0.6144,0.6139,0.619,0.6211,0.6243,0.6295,0.6371,0.6421,0.6492,0.6633,0.6647,0.6697,0.6714,0.6728,0.6743,0.6822,0.6845,0.6592,0.6592,0.6592,0,0,0.5899,0.5934,0.5981,0.6073,0.611,0.6189,0.6119,0.6205,0.6264,0.6225,0.6337,0.6363,0.6421,0.6552,0.6611,0.6578,0.6816,0.6742,0.6753,0.676,0.6835,0.6859,0.6881,0.66,0.6598,0.6597,0,0,0.6055,0.6088,0.6185,0.6223,0.6279,0.629,0.6313,0.6363,0.6378,0.6491,0.6463,0.6535,0.6664,0.6707,0.6746,0.6919,0.6896,0.6943,0.7032,0.7109,0.7129,0.7147,0.7211,0.7233,0.6957,0.6957,0.6957,0,0.6128,0.6244,0.6238,0.6326,0.6369,0.6334,0.6434,0.6472,0.6549,0.658,0.6541,0.6704,0.674,0.6881,0.6924,0.6955,0.6984,0.6937,0.7126,0.7144,0.716,0.7221,0.7245,0.6962,0.6962,0.6961,0.6961,0,0.6331,0.6412,0.6484,0.6558,0.6608,0.6702,0.6712,0.6764,0.6755,0.6771,0.6888,0.693,0.701,0.7043,0.7036,0.7184,0.7162,0.7125,0.7057,0.719,0.7247,0.727,0.697,0.6968,0.6967,0.6965,0,0,0.6536,0.6605,0.6632,0.6665,0.6724,0.6788,0.6881,0.6957,0.7003,0.7057,0.7137,0.7247,0.7213,0.7257,0.7255,0.7322,0.7459,0.7277,0.7278,0.7311,0.7627,0.7656,0.7683,0.7443,0.7447,0.7451,0.7623,0,0.6699,0.6859,0.6857,0.7007,0.7083,0.7051,0.7133,0.7179,0.7196,0.7265,0.7285,0.7364,0.7312,0.7339,0.7403,0.7428,0.7523,0.7416,0.752,0.7523,0.7508,0.7712,0.7743,0.7904,0.7645,0.7649,0.7651,0,0.691,0.6969,0.7127,0.7175,0.7207,0.728,0.735,0.7415,0.7468,0.7476,0.7526,0.7513,0.761,0.7537,0.7672,0.7599,0.7641,0.766,0.7666,0.7678,0.7597,0.7732,0.7954,0.7979,0.7686,0.7683,0.7681,0,0.7046,0.7166,0.7275,0.7305,0.7364,0.7416,0.7444,0.7492,0.7538,0.7601,0.7631,0.7704,0.7745,0.7803,0.7811,0.7757,0.7948,0.7875,0.796,0.796,0.8003,0.8,0.8238,0.8027,0.8026,0.8026,0.8025,0,0.7229,0.7327,0.7338,0.7405,0.7515,0.7512,0.7621,0.7644,0.7688,0.7761,0.7738,0.7808,0.7813,0.7886,0.7893,0.8005,0.8023,0.8034,0.8035,0.8038,0.8037,0.8067,0.8057,0.8032,0.8031,0.803,0.8028,0,0.74,0.7411,0.7529,0.7575,0.7589,0.7668,0.7708,0.7774,0.7789,0.7882,0.7904,0.7928,0.8013,0.8025,0.8125,0.813,0.8264,0.8253,0.8246,0.8246,0.833,0.8322,0.8597,0.8633,0.8396,0.8398,0.84,0,0.7517,0.7592,0.7645,0.7692,0.7722,0.7797,0.7844,0.7844,0.7895,0.796,0.8019,0.81,0.8166,0.8302,0.833,0.8407,0.8398,0.8489,0.841,0.841,0.8402,0.8399,0.8407,0.8505,0.8508,0.851,0.8511,0,0.7725,0.7726,0.7793,0.7863,0.7919,0.7975,0.8027,0.8067,0.8075,0.8133,0.8217,0.8268,0.8369,0.8451,0.8526,0.8557,0.8537,0.8536,0.856,0.8564,0.8558,0.8564,0.829,0.853,0.8528,0.8527,0.8526,0.8525,0.7874,0.7939,0.7987,0.8063,0.8102,0.8152,0.8216,0.8238,0.8308,0.8389,0.8386,0.848,0.8532,0.8631,0.8667,0.8742,0.8712,0.8747,0.8756,0.8765,0.8774,0.8544,0.8755,0.8755,0.8754,0.8754,0.8753,0,0.8082,0.8111,0.8181,0.8254,0.8315,0.8287,0.8344,0.8397,0.8479,0.8529,0.8593,0.8692,0.8771,0.8805,0.8883,0.8937,0.893,0.8958,0.8955,0.8963,0.8794,0.8767,0.8963,0.8963,0.8963,0.8962,0.8962,0.8962,0.8197,0.8307,0.8314,0.8443,0.8472,0.8562,0.8597,0.8644,0.8683,0.8794,0.8859,0.8879,0.8923,0.9005,0.9077,0.9085,0.9117,0.9149,0.9154,0.8996,0.8975,0.8955,0.8929,0.9156,0.9156,0.9316,0.9318,0.9319]},{"header":{"parameterUnit":"m.s-1","parameterCategory":1,"la1":30.2991,"la2":30.254,"lo1":-89.0895,"lo2":-89.0444,"dy":0.0017,"dx":0.0017,"nx":28,"ny":28,"refTime":"2023-08-25T21:00:00:Z","depth":0,"parameterNumber":3,"parameterNumberName":"V-component_of_WINDS"},"data":[0,0,0,0,0,0,0,0,0,0,0,0,0,0,0,0,0,0,0,0,0,0,0,0,0,0,0,0,0,0,0,0,0,0,0,0,0,0,0,0,0,0,0,0,0,0,0,0,0,0,0,0,0,0,0,0,0,0,-0.39,-0.3899,0,-0.3797,-0.3796,-0.3795,-0.387,-0.3873,-0.3876,-0.3879,-0.3773,-0.3767,-0.3761,0,0,0,0,0,0,0,0,0,0,0,0,0,-0.4165,-0.4159,-0.3901,-0.3899,-0.3898,-0.3797,-0.3796,-0.3794,-0.3869,-0.3873,-0.3877,-0.3881,-0.3775,-0.3768,-0.376,0,0,0,0,0,0,0,0,0,0,0,0,0,-0.4054,-0.4158,-0.3901,-0.3923,-0.3924,-0.3798,-0.3796,-0.3794,-0.3868,-0.3873,-0.3878,-0.3883,-0.3777,-0.3768,-0.3759,-0.3605,0,0,-0.3732,-0.3728,0,0,0,0,0,0,0,0,-0.4061,-0.4045,-0.3921,-0.3921,-0.3922,-0.3851,-0.385,-0.3731,-0.3867,-0.3889,-0.3879,-0.3885,-0.3795,-0.3785,-0.3754,-0.36,-0.3596,-0.3731,-0.3726,-0.3722,-0.372,0,0,0,0,0,0,0,-0.4068,-0.405,-0.386,-0.3919,-0.392,-0.3939,-0.3929,-0.3828,-0.3815,-0.3888,-0.3893,-0.388,-0.3796,-0.3763,-0.3752,-0.3594,-0.3732,-0.3724,-0.3718,-0.3715,-0.3314,-0.3309,0,0,0,0,0,0,-0.4074,-0.4055,-0.3863,-0.3857,-0.4005,-0.393,-0.3919,-0.3869,-0.3817,-0.3814,-0.3876,-0.3884,-0.3775,-0.3763,-0.3749,-0.3569,-0.3722,-0.3714,-0.3709,-0.3319,-0.3313,-0.3307,0,0,0,0,0,0,-0.4079,-0.4056,-0.3867,-0.3957,-0.3935,-0.392,-0.3864,-0.3864,-0.3831,-0.3808,-0.3806,-0.3844,-0.3779,-0.3761,-0.3642,-0.3566,-0.371,-0.3702,-0.3325,-0.3317,-0.331,-0.3205,0,0,0,0,0,0,-0.4086,-0.4057,-0.3997,-0.3955,-0.393,-0.376,-0.3859,-0.3859,-0.3816,-0.3825,-0.3777,-0.3774,-0.3781,-0.3655,-0.3633,-0.3557,-0.3695,-0.3332,-0.3322,-0.3312,-0.3215,-0.3194,-0.3177,0,0,0,0,0,-0.4095,-0.3971,-0.3994,-0.397,-0.3855,-0.3756,-0.3741,-0.3752,-0.3809,-0.375,-0.3736,-0.3776,-0.3577,-0.3642,-0.3618,-0.3538,-0.3337,-0.3325,-0.3313,-0.3224,-0.3198,-0.3177,0,0,0,0,0,0,-0.4003,-0.3965,-0.3991,-0.3849,-0.3805,-0.3769,-0.3694,-0.3724,-0.3663,-0.3675,-0.3691,-0.368,-0.3555,-0.3534,-0.3606,-0.3388,-0.3467,-0.3449,-0.3407,-0.3383,-0.3364,-0.3372,-0.3688,0,0,0,0,0,-0.3966,-0.3888,-0.386,-0.3737,-0.3714,-0.3708,-0.3665,-0.3678,-0.3633,-0.3615,-0.3591,-0.3547,-0.3475,-0.3427,-0.3359,-0.3212,-0.3205,-0.3146,-0.3126,-0.3111,-0.3096,-0.3022,-0.2996,-0.3268,-0.3268,-0.3268,0,0,-0.3888,-0.3859,-0.3808,-0.3718,-0.3686,-0.3607,-0.3692,-0.3603,-0.3545,-0.3601,-0.3488,-0.3469,-0.3421,-0.3288,-0.3228,-0.3267,-0.302,-0.3095,-0.3083,-0.3077,-0.3007,-0.2981,-0.2959,-0.326,-0.3261,-0.3262,0,0,-0.3708,-0.3676,-0.3573,-0.354,-0.3491,-0.3488,-0.3463,-0.3423,-0.3413,-0.33,-0.3342,-0.3274,-0.3148,-0.3114,-0.3079,-0.2891,-0.2927,-0.2868,-0.2768,-0.2695,-0.2674,-0.2655,-0.2592,-0.2568,-0.2853,-0.2853,-0.2853,0,-0.3618,-0.3501,-0.3516,-0.3426,-0.3387,-0.3435,-0.3333,-0.3299,-0.323,-0.3202,-0.3246,-0.3094,-0.3064,-0.2926,-0.2881,-0.285,-0.2825,-0.2874,-0.2676,-0.2657,-0.264,-0.258,-0.2555,-0.2846,-0.2847,-0.2848,-0.2848,0,-0.3395,-0.3313,-0.3235,-0.317,-0.3122,-0.3025,-0.3028,-0.2977,-0.2995,-0.2988,-0.2874,-0.2841,-0.277,-0.2738,-0.2753,-0.2603,-0.2629,-0.2673,-0.2753,-0.2607,-0.2551,-0.2528,-0.2837,-0.2839,-0.2841,-0.2843,0,0,-0.3152,-0.3099,-0.3071,-0.3044,-0.2995,-0.2932,-0.2839,-0.2771,-0.2729,-0.268,-0.2605,-0.25,-0.2543,-0.2504,-0.2517,-0.2452,-0.2311,-0.2506,-0.2505,-0.2474,-0.2149,-0.2118,-0.209,-0.2334,-0.2329,-0.2326,-0.2154,0,-0.2972,-0.2812,-0.2825,-0.2673,-0.26,-0.2647,-0.2567,-0.2529,-0.2521,-0.2459,-0.245,-0.2377,-0.2436,-0.2414,-0.2353,-0.2341,-0.2246,-0.2353,-0.2266,-0.2263,-0.228,-0.206,-0.2026,-0.1866,-0.2132,-0.2128,-0.2125,0,-0.2741,-0.2687,-0.2529,-0.2496,-0.2466,-0.2393,-0.2334,-0.2273,-0.2232,-0.2231,-0.219,-0.2215,-0.2124,-0.2204,-0.2081,-0.2154,-0.2119,-0.2108,-0.2103,-0.2097,-0.2187,-0.2052,-0.1814,-0.1792,-0.209,-0.2093,-0.2095,0,-0.2585,-0.2472,-0.2365,-0.2339,-0.2296,-0.2246,-0.2225,-0.219,-0.215,-0.2098,-0.2073,-0.201,-0.1976,-0.1929,-0.1937,-0.1994,-0.1813,-0.1893,-0.1812,-0.1812,-0.1773,-0.1776,-0.153,-0.1745,-0.1746,-0.1746,-0.1747,0,-0.2384,-0.2287,-0.2295,-0.2228,-0.2122,-0.2138,-0.2033,-0.2018,-0.1987,-0.1921,-0.1957,-0.1894,-0.1907,-0.1844,-0.185,-0.175,-0.1733,-0.1732,-0.1735,-0.1731,-0.1731,-0.171,-0.1723,-0.174,-0.1741,-0.1742,-0.1743,0,-0.2192,-0.2193,-0.208,-0.205,-0.204,-0.1963,-0.1939,-0.1877,-0.1873,-0.1789,-0.177,-0.1764,-0.1693,-0.1696,-0.1615,-0.1619,-0.1498,-0.1512,-0.1512,-0.1516,-0.1437,-0.1446,-0.1171,-0.1138,-0.1371,-0.1369,-0.1367,0,-0.2066,-0.1992,-0.1956,-0.1915,-0.1892,-0.1824,-0.1784,-0.1798,-0.1756,-0.1707,-0.1652,-0.1585,-0.1532,-0.1417,-0.1406,-0.1346,-0.1361,-0.1269,-0.1352,-0.1352,-0.1365,-0.1371,-0.1365,-0.1254,-0.1251,-0.1249,-0.1247,0,-0.1842,-0.1848,-0.1789,-0.1731,-0.1683,-0.1638,-0.1597,-0.1561,-0.1571,-0.1521,-0.1451,-0.141,-0.1329,-0.1263,-0.1206,-0.1187,-0.122,-0.1221,-0.12,-0.1196,-0.1201,-0.1201,-0.1471,-0.1227,-0.1229,-0.1231,-0.1232,-0.1233,-0.1682,-0.1621,-0.1587,-0.1522,-0.1493,-0.1455,-0.1398,-0.1388,-0.1329,-0.1265,-0.1277,-0.1199,-0.1164,-0.1091,-0.1067,-0.1007,-0.104,-0.1008,-0.1001,-0.0994,-0.0987,-0.1208,-0.0996,-0.0997,-0.0997,-0.0998,-0.0998,0,-0.1465,-0.1446,-0.1386,-0.1329,-0.1278,-0.1313,-0.1271,-0.1227,-0.1157,-0.1122,-0.1071,-0.0992,-0.0929,-0.0914,-0.0855,-0.081,-0.0824,-0.0795,-0.08,-0.0796,-0.0959,-0.0985,-0.0785,-0.0785,-0.0785,-0.0785,-0.0785,-0.0785,-0.1346,-0.1246,-0.1248,-0.1136,-0.1118,-0.1042,-0.1016,-0.0982,-0.0955,-0.0865,-0.0814,-0.0805,-0.0779,-0.0719,-0.0664,-0.0662,-0.064,-0.0605,-0.0609,-0.0762,-0.0783,-0.0804,-0.0829,-0.0599,-0.0599,-0.0452,-0.045,-0.0449]}]]